Tracking 23722 objects as of 15-Oct-2021
HD Live streaming from Space Station
objects crossing your sky now

CZ-2D DEB

Track CZ-2D DEB now!
10-day predictions


NORAD ID: 44609
Int'l Code: 2017-060B
Perigee: 601.6 km
Apogee: 664.6 km
Inclination: 97.7 °
Period: 97.2 minutes
Semi major axis: 7004 km
RCS: Unknown
Launch date: October 9, 2017
Source: People's Republic of China (PRC)
Launch site: Jiuquan Satellite Launch Center, China (JSC)

Note: This is SATELLITE DEBRIS
aabbcc
Your satellite tracking list
Your tracking list is empty




NASA's NSSDC Master Catalog

Two Line Element Set (TLE):
1 44609U 17060B   21288.09527012  .00000725  00000-0  98632-4 0  9990
2 44609  97.7313 345.0572 0044969 199.4937 160.4558 14.81060854211364
Source of the keplerian elements: AFSPC